This demonstration page uses our WeatherBlox Daily Observations layout. Learn more.

Left ArrowRight Arrow

36.17497, -115.13722

Hourly Observations for April 3, 2017

Temp ( °F °C ) Dew Point ( °F °C ) Humidity (%) Winds ( mph kmh ) Pressure ( in mb ) Visibility ( mi km ) Precip ( " mm )
12:53 am 00:53 Clear 68 20 31 -0.6 25 25 ENE 6 9 29.78 1009 10 16.0934 N/A
1:53 am 01:53 Clear 64 17.8 35 1.7 34 34 ESE 8 13 29.79 1009 10 16.0934 N/A
2:53 am 02:53 Clear 64 17.8 39 3.9 40 40 ESE 10 17 29.78 1008 10 16.0934 N/A
3:53 am 03:53 Clear 62 16.7 39 3.9 43 43 N 5 7 29.78 1008 10 16.0934 N/A
4:53 am 04:53 Clear 61 16.1 40 4.4 46 46 N N/A 29.77 1008 10 16.0934 N/A
5:53 am 05:53 Clear 60 15.6 40 4.4 47 47 VRB 3 6 29.78 1009 10 16.0934 N/A
6:53 am 06:53 Sunny 60 15.6 39 3.9 46 46 S 3 6 29.79 1009 10 16.0934 N/A
7:53 am 07:53 Sunny 61 16.1 39 3.9 44 44 SSE 5 7 29.8 1009 10 16.0934 N/A
8:53 am 08:53 Sunny 65 18.3 37 2.8 36 36 SE 9 15 29.8 1009 10 16.0934 N/A
9:53 am 09:53 Sunny 68 20 35 1.7 30 30 ESE 9 15 29.78 1009 10 16.0934 N/A
10:53 am 10:53 Sunny 70 21.1 34 1.1 27 27 SE 10 17 29.78 1008 10 16.0934 N/A
11:53 am 11:53 Sunny 71 21.7 33 0.6 25 25 undefined N/A 29.76 1008 10 16.0934 N/A
12:44 pm 12:44 Sunny with Thunderstorms 72 22 34 1 25 25 N N/A 29.62 1003 10 16.0934 N/A
12:53 pm 12:53 Sunny with Thunderstorms 73 22.8 34 1.1 24 24 ENE 6 9 29.72 1007 10 16.0934 N/A
12:54 pm 12:54 Sunny with Thunderstorms 73 23 34 1 23 23 NE 6 9 29.62 1003 10 16.0934 N/A
1:32 pm 13:32 Cloudy with Heavy Thunderstorms 61 16 48 9 63 63 NNW 22 35 29.71 1006 4 6.43736 N/A
1:53 pm 13:53 Cloudy with Heavy Thunderstorms 62 16.7 45 7.2 54 54 NNW 21 33 29.78 1009 10 16.0934 0.13 3.302
2:53 pm 14:53 Sunny 64 17.8 49 9.4 58 58 E 17 28 29.75 1007 10 16.0934 N/A
3:01 pm 15:01 Sunny 64 17.8 47 8.3 54 54 E 13 20 29.68 1005 10 16.0934 N/A
3:53 pm 15:53 Sunny 73 22.8 14 -10 10 10 NNW 20 31 29.74 1007 10 16.0934 N/A
4:53 pm 16:53 Sunny 72 22.2 13 -10.6 10 10 N 20 31 29.77 1008 10 16.0934 N/A
5:53 pm 17:53 Sunny 71 21.7 14 -10 11 11 NNE 15 24 29.79 1009 10 16.0934 N/A
6:53 pm 18:53 Sunny 67 19.4 23 -5 19 19 VRB 6 9 29.83 1010 10 16.0934 N/A
7:53 pm 19:53 Clear 62 16.7 27 -2.8 26 26 E 10 17 29.86 1011 10 16.0934 N/A
8:53 pm 20:53 Clear 59 15 42 5.6 54 54 E 9 15 29.9 1013 10 16.0934 N/A
9:53 pm 21:53 Clear 56 13.3 39 3.9 53 53 ESE 12 19 29.93 1013 10 16.0934 N/A
10:53 pm 22:53 Clear 54 12.2 38 3.3 55 55 E 5 7 29.95 1014 10 16.0934 N/A
11:53 pm 23:53 Clear 54 12.2 37 2.8 53 53 SSE 6 9 29.95 1014 10 16.0934 N/A

Powered by AerisWeather